Wind_Speed
39 41 39 38 37 34 32 30 27 27 25 24 26 25 17 13 12 12 16 19 22 27 31 33 33 33 25 24 14 7 3 3 3 2 4 6 9 10 12 12 11 10 9 9 9 9 14 14 9
47 38 43 40 43 41 33 31 34 25 28 21 25 22 16 14 12 12 14 17 23 23 28 32 30 33 27 23 14 6 5 5 3 3 5 5 7 8 10 11 10 12 13 15 20 19 16 15 16
53 44 37 42 46 43 33 30 32 27 24 25 26 17 19 14 15 12 15 17 21 21 25 30 30 29 29 22 15 6 4 5 6 6 8 10 10 10 13 15 16 20 24 24 21 19 18 14 10
55 55 48 38 46 45 41 33 29 24 26 25 23 22 20 16 17 16 12 15 19 18 22 27 27 30 31 24 19 15 11 10 8 9 10 12 13 14 17 22 24 25 24 23 20 16 15 15 14
59 55 53 51 47 46 44 36 33 28 27 24 26 22 23 20 18 17 12 15 18 15 18 22 24 27 28 26 22 17 17 17 16 16 17 20 23 26 26 25 24 22 20 17 20 14 11 11 10
63 57 56 55 52 41 45 40 35 34 30 30 28 23 19 18 16 10 9 9 14 12 15 16 21 24 25 25 24 21 21 22 23 24 26 29 29 27 26 25 24 21 19 16 13 11 10 10 11
68 63 59 55 52 55 45 47 43 40 40 33 30 26 22 13 20 12 11 8 11 10 12 12 15 20 15 23 23 24 24 25 25 24 27 28 27 26 24 21 17 16 15 13 11 10 10 10 11
72 67 62 59 54 53 55 49 49 45 42 38 34 31 26 26 23 17 16 10 12 9 10 9 10 16 13 13 19 21 21 23 23 23 22 22 21 21 18 17 15 13 10 8 4 4 5 9 11
75 72 70 65 58 57 59 57 52 49 46 44 39 32 27 29 27 21 16 13 15 10 10 8 8 10 12 9 11 15 17 17 17 16 16 15 13 13 11 11 9 6 4 3 3 6 8 10 11
79 77 75 69 61 60 61 58 55 52 49 48 43 41 33 25 26 26 20 15 16 8 9 12 7 8 11 9 6 8 8 9 9 10 8 7 5 4 5 4 2 1 2 5 5 7 12 16 17
84 82 80 73 65 62 62 62 61 56 51 43 43 46 40 34 28 26 23 15 20 14 10 12 12 7 9 10 6 3 4 3 3 3 2 1 1 3 3 5 5 6 7 9 12 15 14 20 22
86 88 82 75 71 65 62 61 62 61 50 47 50 48 44 40 36 29 24 21 17 22 15 12 15 12 12 11 10 7 6 8 6 6 5 6 7 6 7 8 11 12 14 16 18 20 22 26 30
87 91 84 77 72 69 66 63 61 62 60 49 47 49 48 45 41 37 30 29 26 21 26 16 14 16 15 13 14 13 14 12 12 11 10 12 13 14 15 15 14 15 18 21 22 25 28 30 33
90 93 88 81 76 72 70 65 62 64 59 53 47 51 51 49 43 39 37 34 33 28 26 22 20 20 19 18 17 18 19 20 19 17 17 18 18 19 20 21 23 23 24 25 26 30 32 35 36
93 94 90 84 80 75 73 68 69 66 63 58 52 51 51 52 47 44 43 40 39 35 34 30 27 27 25 22 24 24 22 25 26 24 22 22 24 26 27 29 29 27 29 31 32 35 36 37 41
97 97 94 86 82 80 77 73 77 69 66 62 59 52 54 53 55 50 43 43 43 43 39 37 33 32 31 28 26 28 30 30 31 31 30 28 27 28 29 30 32 33 34 35 37 38 41 43 45
100 97 96 91 87 85 81 77 83 74 71 67 62 55 50 54 56 51 47 44 46 45 45 41 39 37 36 35 35 34 34 36 35 37 37 35 34 33 33 36 37 40 41 42 43 44 45 47 49
100 99 100 98 97 91 86 80 87 78 73 70 64 60 54 52 55 56 58 50 51 49 45 42 38 42 39 38 36 36 36 38 39 41 40 40 40 39 39 39 43 46 46 49 50 50 50 51 53
110 106 103 103 102 95 90 86 82 82 74 71 68 66 62 56 52 54 61 58 55 55 52 51 50 47 45 42 40 40 42 43 46 41 45 44 43 43 44 47 48 47 47 47 49 53 54 56 55
114 110 106 107 103 98 95 86 84 80 77 75 71 68 67 61 56 56 55 56 57 55 54 53 52 50 49 49 49 49 46 47 48 52 50 50 51 53 54 53 52 52 54 55 56 56 56 57 60
117 112 110 110 106 100 99 90 88 82 79 79 76 70 70 68 64 61 62 61 60 58 56 56 55 54 55 55 54 55 55 54 54 55 54 52 53 55 55 54 53 55 56 57 58 58 59 59 59
121 116 113 112 112 106 100 94 92 86 80 78 77 74 71 72 71 68 64 59 62 60 60 60 59 57 56 55 57 60 60 60 59 58 58 57 57 58 59 60 59 58 58 60 59 61 59 58 62
124 118 117 114 113 112 103 99 87 87 84 80 79 78 79 77 75 72 70 69 64 62 62 64 63 61 60 59 59 61 61 64 64 62 61 61 60 59 59 60 59 60 59 60 56 60 64 67 68
126 123 121 117 114 112 105 104 87 90 83 84 83 82 82 80 78 76 74 73 71 71 67 65 64 63 62 61 60 64 65 64 64 65 66 66 67 68 66 62 62 63 61 61 62 63 65 68 70
124 126 125 122 119 110 109 112 91 90 89 90 89 86 83 84 83 81 79 78 75 74 71 70 68 68 66 63 64 65 68 65 65 69 69 65 66 69 70 71 69 66 65 65 65 65 69 69 75
119 126 127 123 122 116 116 109 101 92 94 93 93 92 89 87 85 83 82 81 80 80 75 74 71 69 67 68 67 65 65 71 68 66 70 72 69 68 69 69 70 73 75 75 73 71 75 76 83
114 119 122 126 126 124 119 110 103 102 96 95 95 96 98 95 91 86 84 81 79 79 80 78 76 74 71 71 69 66 67 68 73 74 73 77 74 74 69 70 73 75 78 80 78 81 80 81 83
111 113 117 123 127 125 119 114 105 105 104 101 97 99 99 98 96 91 87 84 81 81 81 81 79 78 78 76 75 75 72 71 73 75 74 77 80 80 80 81 80 80 82 83 84 87 89 85 84
109 113 116 116 120 124 121 113 110 107 108 108 103 101 100 99 101 99 94 91 88 88 86 84 84 84 83 82 81 79 77 76 75 75 76 75 77 80 81 82 80 79 78 80 77 79 83 85 86
103 110 112 113 113 115 118 109 111 113 110 110 109 106 102 103 104 104 103 97 95 93 92 90 89 88 87 86 84 83 80 79 79 78 80 81 81 80 80 81 83 83 83 84 86 85 86 86 88
Wind_Direction
242 239 234 234 229 236 244 249 257 263 261 269 274 275 280 307 301 311 332 349 347 346 346 344 352 357 356 354 342 317 353 19 1 284 216 215 215 207 202 198 201 200 200 196 197 191 156 149 139
246 246 231 230 233 235 237 250 255 261 251 250 268 269 272 289 291 288 328 348 345 345 349 347 355 3 5 2 358 359 20 23 40 79 111 148 164 172 174 171 169 162 157 147 137 137 134 127 129
245 244 229 232 231 234 233 247 252 255 245 251 254 258 268 277 290 302 303 333 339 346 352 347 359 6 15 15 17 26 36 70 78 103 102 119 129 137 139 140 139 135 129 126 125 128 130 131 119
238 246 237 235 239 232 240 230 237 250 244 242 239 250 267 278 289 292 307 332 332 341 353 349 3 10 19 26 33 48 63 73 92 98 102 106 114 122 123 125 123 121 120 119 120 118 118 110 97
236 237 242 236 243 236 236 238 231 245 245 237 237 258 267 268 280 285 298 324 328 335 356 352 359 12 23 30 38 48 64 75 89 99 104 106 110 111 112 112 111 112 111 109 113 101 94 85 63
234 234 237 240 241 238 232 234 235 238 246 245 247 258 255 269 270 290 290 325 315 327 349 357 360 19 34 38 46 56 68 81 90 98 104 106 107 106 103 103 103 104 103 102 96 83 72 60 41
235 234 236 239 242 239 238 241 244 239 241 248 248 248 241 260 260 274 293 318 285 307 340 354 354 19 33 43 53 61 67 76 87 93 102 103 102 105 98 101 105 106 102 92 76 62 55 37 15
234 231 236 238 244 241 237 239 242 243 235 246 249 247 250 251 250 263 278 306 280 282 318 349 341 6 19 31 45 56 67 74 83 89 93 92 89 101 105 103 96 92 83 77 72 48 14 356 353
230 233 236 237 239 242 238 238 239 245 242 243 241 247 251 252 252 252 267 291 268 262 294 336 338 354 357 36 42 57 57 71 70 78 90 89 83 92 94 95 98 111 93 46 334 322 331 333 336
230 230 234 236 239 238 238 236 238 242 246 247 242 248 249 249 248 247 257 280 252 263 281 304 317 321 341 352 38 64 72 77 65 65 69 66 47 77 110 128 148 223 321 332 325 340 339 336 328
230 230 233 234 236 238 239 236 237 241 243 238 241 245 246 243 245 253 254 251 254 247 299 295 308 284 309 316 330 334 357 43 35 74 83 134 242 300 315 307 306 308 307 315 316 324 324 323 321
230 230 233 233 234 237 239 237 235 237 241 241 242 245 246 251 247 250 249 229 246 247 269 283 297 266 272 284 295 289 288 288 303 305 272 262 270 283 284 288 291 287 300 307 312 317 314 312 311
227 230 231 231 231 236 236 237 235 238 242 242 245 245 250 250 246 244 243 231 240 251 253 271 279 258 267 257 277 275 273 277 275 265 274 283 287 289 284 286 284 283 292 306 304 306 305 304 303
225 227 228 226 231 233 234 236 238 237 237 238 243 246 246 244 239 240 240 234 239 247 252 268 269 261 251 271 267 271 274 275 275 272 271 278 281 288 291 290 289 292 294 293 296 298 302 305 308
225 225 226 226 228 232 233 234 237 236 235 237 244 247 241 241 242 245 243 244 236 245 252 257 258 258 257 266 267 273 268 270 273 273 270 270 273 274 279 284 285 286 290 288 292 295 296 298 301
222 224 225 225 226 230 231 233 237 235 236 240 242 247 235 242 249 247 238 238 246 249 246 253 255 255 253 263 264 267 267 270 266 268 269 269 269 272 275 282 283 286 286 285 288 291 293 293 297
218 223 223 225 225 226 230 234 237 235 235 239 243 245 238 237 243 241 233 239 241 246 250 249 253 250 254 259 266 268 268 262 266 264 267 267 271 269 272 279 281 280 281 283 285 288 288 296 297
218 220 223 224 222 222 226 231 237 234 237 238 241 243 242 241 242 242 238 239 243 244 246 247 253 249 250 255 263 264 262 265 261 262 265 265 266 271 274 278 278 279 281 281 282 285 290 293 296
216 219 221 224 224 221 223 228 236 233 236 238 239 240 241 242 243 241 239 242 246 248 249 252 252 248 255 257 261 261 260 264 261 260 263 265 268 274 274 274 277 278 282 282 285 287 292 298 298
215 218 219 223 225 223 223 224 234 234 235 239 239 240 241 241 242 242 243 245 247 248 250 251 251 256 256 260 261 264 264 261 263 270 274 273 271 272 273 273 274 276 280 282 284 287 290 294 297
215 217 220 222 224 223 224 222 231 231 231 239 241 241 242 242 241 242 242 243 247 248 251 253 252 253 253 256 260 262 262 266 267 270 271 272 274 272 271 273 274 276 279 281 282 286 289 290 293
216 217 220 223 224 223 222 222 229 231 230 235 239 241 242 244 243 244 241 242 244 245 250 249 250 249 252 255 256 258 261 265 268 270 267 269 270 270 268 272 272 277 278 281 283 288 287 288 292
218 219 220 222 225 224 223 222 226 231 231 232 235 238 242 245 245 245 244 245 244 246 245 245 247 248 251 254 256 258 258 260 263 266 267 267 267 269 272 272 274 278 280 283 287 285 285 289 292
220 219 219 221 224 225 225 224 219 232 231 233 235 237 240 243 245 246 247 247 247 250 250 248 249 253 255 256 256 259 259 260 261 263 265 268 268 268 270 272 275 275 278 283 286 289 291 292 295
221 221 221 220 223 224 226 225 215 231 232 234 235 236 237 240 244 246 248 250 250 251 252 255 254 253 257 255 256 257 258 260 260 261 264 266 270 270 271 272 272 276 280 281 285 287 292 291 294
222 223 224 223 223 224 224 226 221 224 234 234 236 238 238 238 240 244 246 249 251 253 254 255 256 254 253 255 254 258 261 260 260 262 264 263 266 269 270 274 270 275 278 280 282 287 291 292 293
224 224 225 226 224 224 225 225 223 222 229 235 236 238 240 239 239 243 247 250 254 257 257 256 259 257 255 254 257 260 262 264 262 264 267 265 263 267 269 272 275 280 280 279 281 285 288 292 292
225 226 226 228 227 227 225 225 224 225 228 233 236 239 241 242 242 241 243 247 249 252 256 258 258 259 259 259 261 262 263 263 263 264 270 269 266 265 269 273 277 278 281 282 283 284 285 289 293
227 227 228 229 229 230 227 226 228 225 228 232 235 238 242 244 245 244 243 244 247 250 252 255 258 260 261 263 264 264 263 266 267 266 267 272 270 271 273 274 278 281 282 283 285 285 287 289 292
226 228 230 231 232 230 230 227 229 229 228 231 236 237 239 244 246 246 245 245 247 249 251 253 255 258 260 261 263 264 265 265 265 267 268 270 272 273 275 278 281 281 282 285 285 287 288 289 289
Height
10881 10885 10890 10892 10894 10895 10898 10901 10903 10906 10907 10910 10911 10912 10911 10911 10911 10912 10911 10908 10905 10901 10898 10892 10886 10878 10871 10866 10862 10861 10859 10857 10856 10856 10856 10857 10858 10859 10861 10864 10866 10869 10872 10874 10876 10878 10880 10881 10883
10873 10877 10883 10887 10889 10889 10893 10897 10900 10902 10904 10905 10908 10909 10909 10909 10909 10909 10909 10907 10904 10901 10897 10893 10887 10879 10870 10866 10862 10861 10859 10858 10856 10856 10856 10857 10858 10860 10862 10865 10867 10869 10871 10873 10876 10878 10880 10882 10883
10866 10871 10877 10881 10883 10885 10887 10892 10896 10898 10900 10902 10905 10906 10907 10907 10908 10908 10907 10906 10904 10901 10897 10893 10888 10881 10874 10868 10863 10861 10860 10858 10857 10857 10857 10859 10860 10862 10864 10866 10868 10870 10872 10875 10878 10880 10882 10883 10884
10859 10864 10870 10873 10877 10881 10885 10885 10890 10894 10896 10898 10900 10903 10903 10904 10905 10906 10906 10905 10904 10901 10898 10894 10890 10883 10876 10870 10866 10863 10861 10859 10859 10858 10859 10861 10863 10866 10867 10869 10871 10874 10876 10878 10880 10882 10884 10884 10884
10851 10857 10861 10867 10871 10877 10880 10884 10886 10888 10893 10895 10897 10899 10900 10901 10902 10904 10905 10904 10903 10902 10899 10895 10892 10887 10880 10874 10871 10868 10863 10861 10861 10861 10862 10864 10867 10870 10872 10874 10876 10878 10880 10882 10883 10884 10885 10885 10884
10842 10848 10854 10858 10866 10870 10874 10878 10881 10884 10888 10891 10893 10896 10897 10898 10900 10900 10902 10902 10902 10901 10900 10896 10894 10891 10886 10881 10878 10874 10870 10867 10866 10867 10867 10868 10871 10874 10877 10878 10880 10882 10884 10885 10884 10885 10886 10885 10885
10832 10839 10845 10851 10856 10861 10867 10870 10873 10878 10883 10886 10889 10891 10893 10894 10898 10898 10900 10899 10900 10900 10899 10897 10895 10893 10890 10887 10883 10880 10877 10874 10873 10873 10873 10874 10876 10877 10879 10882 10884 10884 10886 10886 10886 10886 10885 10885 10884
10822 10829 10835 10841 10846 10851 10859 10863 10867 10872 10877 10882 10884 10887 10889 10890 10893 10896 10897 10897 10897 10898 10898 10897 10896 10894 10892 10891 10888 10886 10883 10881 10880 10879 10880 10880 10881 10881 10883 10884 10885 10886 10886 10886 10886 10885 10885 10883 10882
10810 10818 10822 10831 10838 10842 10850 10855 10860 10864 10871 10876 10879 10882 10884 10886 10889 10892 10894 10894 10895 10896 10896 10896 10896 10895 10893 10893 10891 10890 10889 10887 10886 10885 10884 10884 10885 10885 10886 10886 10886 10886 10885 10885 10884 10883 10881 10880 10879
10797 10806 10812 10821 10828 10834 10841 10846 10852 10856 10863 10868 10872 10874 10879 10881 10884 10887 10890 10891 10892 10893 10894 10894 10895 10894 10894 10893 10892 10891 10891 10890 10889 10889 10888 10888 10888 10887 10886 10886 10885 10885 10884 10884 10882 10881 10880 10878 10876
10785 10791 10799 10810 10818 10824 10830 10836 10842 10847 10853 10861 10864 10867 10872 10876 10878 10881 10885 10886 10889 10890 10891 10892 10892 10893 10892 10893 10892 10891 10891 10890 10890 10889 10889 10888 10888 10887 10886 10885 10884 10883 10882 10880 10879 10879 10878 10875 10874
10769 10775 10787 10798 10807 10814 10820 10826 10833 10837 10843 10851 10855 10859 10865 10869 10873 10875 10879 10881 10883 10886 10888 10889 10890 10890 10890 10890 10891 10890 10890 10889 10888 10888 10888 10888 10887 10886 10884 10883 10882 10881 10879 10878 10876 10875 10873 10872 10870
10752 10760 10776 10787 10796 10803 10809 10815 10822 10825 10833 10841 10846 10851 10856 10860 10865 10868 10873 10875 10877 10879 10882 10884 10886 10886 10886 10887 10887 10888 10888 10887 10886 10886 10885 10885 10884 10884 10883 10881 10879 10878 10876 10874 10873 10871 10869 10867 10865
10735 10745 10760 10774 10783 10791 10799 10805 10809 10812 10823 10831 10836 10842 10847 10852 10857 10861 10864 10868 10870 10872 10875 10879 10879 10881 10882 10884 10884 10884 10884 10884 10883 10882 10882 10882 10881 10880 10879 10878 10876 10875 10873 10871 10869 10867 10864 10861 10859
10722 10732 10746 10760 10772 10779 10787 10798 10791 10804 10813 10821 10827 10832 10839 10843 10847 10852 10856 10860 10863 10865 10867 10871 10873 10874 10877 10878 10879 10880 10879 10879 10878 10878 10877 10877 10876 10876 10874 10873 10872 10870 10868 10865 10863 10861 10859 10856 10852
10704 10716 10733 10748 10758 10765 10773 10783 10776 10793 10803 10809 10817 10823 10829 10835 10839 10843 10846 10852 10854 10857 10859 10862 10865 10867 10869 10871 10872 10873 10874 10873 10872 10872 10872 10871 10870 10870 10869 10867 10866 10864 10862 10860 10857 10855 10853 10850 10847
10684 10705 10720 10728 10739 10749 10760 10765 10761 10781 10790 10798 10809 10815 10819 10823 10826 10832 10836 10840 10842 10846 10850 10853 10855 10858 10861 10863 10864 10865 10866 10866 10866 10864 10864 10864 10863 10863 10862 10861 10859 10857 10855 10853 10850 10848 10846 10843 10839
10676 10688 10698 10704 10712 10727 10741 10751 10748 10772 10781 10790 10800 10806 10808 10811 10814 10823 10825 10828 10831 10835 10839 10844 10847 10849 10852 10853 10855 10856 10857 10857 10857 10856 10856 10855 10855 10855 10855 10853 10851 10848 10846 10845 10843 10840 10838 10835 10831
10646 10661 10675 10685 10694 10712 10727 10740 10738 10760 10773 10779 10785 10791 10794 10797 10803 10807 10812 10817 10821 10824 10828 10833 10836 10841 10842 10845 10846 10848 10847 10847 10846 10847 10847 10847 10847 10847 10845 10844 10841 10839 10838 10835 10833 10831 10829 10827 10823
10622 10640 10654 10664 10675 10698 10712 10730 10728 10751 10763 10767 10773 10778 10780 10786 10791 10795 10800 10805 10808 10812 10816 10821 10825 10831 10833 10833 10836 10836 10838 10837 10838 10837 10838 10839 10838 10837 10834 10833 10832 10829 10827 10826 10824 10822 10820 10817 10812
10606 10623 10637 10646 10658 10678 10698 10719 10718 10732 10751 10756 10760 10762 10766 10770 10776 10782 10787 10792 10796 10799 10804 10810 10813 10817 10819 10822 10824 10823 10825 10825 10827 10827 10828 10828 10827 10826 10824 10823 10822 10820 10817 10816 10814 10811 10809 10806 10801
10587 10603 10615 10627 10637 10659 10679 10706 10709 10720 10739 10744 10744 10746 10749 10754 10762 10768 10774 10778 10782 10786 10793 10795 10798 10803 10806 10809 10811 10812 10812 10811 10815 10816 10816 10816 10815 10814 10813 10811 10809 10808 10807 10804 10803 10802 10798 10795 10790
10574 10582 10596 10608 10623 10642 10667 10683 10707 10708 10724 10729 10727 10728 10734 10738 10746 10752 10758 10764 10768 10772 10777 10780 10785 10788 10790 10796 10797 10799 10801 10799 10801 10803 10803 10803 10803 10802 10800 10799 10798 10798 10795 10792 10791 10789 10786 10782 10778
10553 10564 10577 10589 10605 10628 10655 10667 10700 10693 10710 10712 10714 10717 10720 10723 10728 10736 10742 10749 10754 10760 10764 10768 10773 10775 10778 10780 10784 10786 10786 10787 10789 10790 10790 10790 10791 10790 10789 10787 10787 10785 10784 10782 10779 10776 10773 10769 10765
10539 10548 10556 10570 10588 10624 10631 10644 10694 10678 10687 10689 10694 10700 10704 10708 10712 10718 10727 10734 10742 10746 10751 10756 10759 10762 10765 10768 10770 10771 10770 10774 10776 10775 10778 10778 10777 10776 10774 10774 10774 10773 10770 10768 10766 10763 10759 10756 10752
10521 10528 10542 10558 10573 10594 10606 10630 10670 10667 10663 10674 10678 10683 10691 10692 10693 10702 10711 10719 10725 10729 10738 10741 10745 10747 10752 10753 10754 10757 10758 10758 10759 10761 10761 10763 10762 10761 10760 10761 10761 10759 10756 10755 10752 10749 10745 10743 10736
10504 10512 10521 10533 10550 10565 10589 10616 10641 10652 10648 10653 10660 10662 10661 10670 10681 10692 10701 10709 10714 10716 10720 10726 10730 10732 10736 10738 10741 10743 10745 10744 10744 10746 10748 10745 10747 10747 10746 10745 10745 10744 10741 10740 10739 10735 10730 10728 10719
10484 10493 10503 10516 10535 10548 10577 10595 10623 10631 10633 10634 10642 10642 10646 10657 10664 10675 10685 10691 10695 10698 10701 10707 10712 10715 10718 10723 10725 10728 10730 10730 10729 10731 10731 10728 10730 10732 10731 10730 10730 10726 10726 10725 10723 10718 10713 10711 10702
10466 10476 10485 10497 10513 10532 10561 10586 10595 10613 10617 10618 10622 10629 10635 10641 10646 10655 10666 10674 10676 10680 10684 10690 10694 10699 10702 10706 10709 10712 10712 10714 10715 10717 10715 10714 10714 10714 10714 10713 10712 10710 10709 10708 10707 10702 10696 10692 10685
10448 10461 10472 10481 10496 10513 10538 10573 10574 10586 10601 10604 10606 10612 10619 10623 10626 10633 10642 10653 10661 10666 10669 10673 10677 10679 10682 10686 10690 10693 10696 10697 10698 10700 10699 10697 10697 10697 10698 10696 10693 10690 10688 10686 10685 10682 10677 10673 10670